Total_Precipitation_Accumulation
1.18 1.15 1.14 1.04 0.99 1.02 1.09 1.27 1.57 1.38 0.86 0.64 0.62 0.65 0.73 0.82 0.92 0.90 0.84 0.91 1.01 1.13 1.28 1.36 1.44 1.66 2.07 2.75 3.70 4.71 4.95 4.25 3.42 2.91 2.87 3.33 3.82 4.32
1.24 1.26 1.23 1.20 1.19 1.15 1.15 1.21 1.38 1.54 1.19 0.65 0.58 0.63 0.76 0.87 1.03 1.03 1.01 1.10 1.08 1.15 1.24 1.32 1.36 1.48 1.70 2.09 2.69 3.62 4.56 4.75 4.17 3.54 3.26 3.34 3.68 4.04
1.31 1.38 1.34 1.29 1.35 1.30 1.24 1.21 1.23 1.38 1.41 0.80 0.59 0.62 0.83 1.03 1.09 1.12 1.15 1.11 1.06 1.14 1.21 1.28 1.33 1.40 1.58 1.82 2.16 2.74 3.64 4.43 4.62 4.26 3.89 3.64 3.63 3.75
1.34 1.36 1.38 1.37 1.40 1.38 1.38 1.30 1.20 1.18 1.30 1.09 0.76 0.74 0.86 1.04 1.11 1.16 1.23 1.21 1.14 1.21 1.26 1.34 1.43 1.50 1.62 1.74 1.94 2.22 2.85 3.55 4.22 4.42 4.20 3.83 3.66 3.76
1.58 1.56 1.49 1.48 1.49 1.44 1.44 1.40 1.29 1.19 1.20 1.22 0.97 0.84 0.90 1.01 1.15 1.24 1.28 1.27 1.27 1.33 1.30 1.33 1.46 1.58 1.65 1.70 1.81 1.99 2.25 2.65 3.25 3.96 4.20 4.00 3.75 3.71
1.68 1.70 1.66 1.65 1.60 1.55 1.56 1.51 1.47 1.49 1.44 1.44 1.26 1.06 1.01 1.03 1.22 1.42 1.52 1.37 1.34 1.34 1.37 1.36 1.46 1.55 1.61 1.60 1.56 1.69 1.93 2.29 2.84 3.45 3.98 4.10 3.79 3.63
1.54 1.54 1.61 1.78 1.84 1.90 1.93 1.82 1.79 1.91 1.87 1.78 1.56 1.35 1.20 1.24 1.36 1.45 1.68 1.64 1.53 1.44 1.46 1.40 1.40 1.38 1.41 1.50 1.56 1.67 1.85 2.00 2.34 2.88 3.42 3.83 3.85 3.70
1.45 1.36 1.34 1.55 1.65 1.80 1.95 1.96 2.03 2.20 2.28 2.19 1.90 1.62 1.34 1.28 1.40 1.63 1.85 2.05 1.97 1.56 1.57 1.61 1.55 1.57 1.47 1.44 1.58 1.65 1.79 1.93 2.10 2.44 2.87 3.28 3.54 3.68
1.30 1.28 1.25 1.28 1.41 1.36 1.55 1.68 1.72 1.90 2.15 2.27 2.23 1.77 1.49 1.37 1.67 1.88 1.93 2.07 1.96 1.70 1.79 2.02 1.82 1.75 1.61 1.58 1.62 1.53 1.64 1.78 1.88 2.10 2.43 2.82 3.17 3.43
1.10 1.08 1.09 1.13 1.25 1.41 1.50 1.51 1.43 1.51 1.80 2.00 2.16 1.97 1.76 1.72 1.99 2.29 2.42 2.43 2.21 1.97 1.94 2.32 2.10 1.95 1.85 1.72 1.64 1.48 1.52 1.62 1.74 1.87 2.07 2.39 2.73 2.96
1.03 1.02 0.99 0.99 1.31 1.57 1.52 1.44 1.31 1.31 1.48 1.78 2.01 2.10 2.17 2.30 2.47 2.77 2.96 2.92 2.73 2.32 2.08 2.29 2.31 2.22 2.07 1.95 1.77 1.58 1.47 1.50 1.57 1.68 1.76 1.94 2.23 2.58
1.04 1.00 1.11 1.16 1.41 1.51 1.42 1.47 1.51 1.34 1.27 1.34 1.44 1.56 1.64 1.82 2.20 2.48 2.75 2.92 2.86 2.77 2.27 2.25 2.39 2.44 2.69 2.25 1.83 1.51 1.37 1.41 1.45 1.53 1.59 1.65 1.87 2.04
1.19 1.12 1.07 1.25 1.31 1.38 1.44 1.44 1.60 1.47 1.35 1.43 1.44 1.38 1.40 1.54 1.74 2.04 2.43 2.79 2.99 2.85 2.33 2.41 2.61 2.37 2.56 2.45 2.04 1.65 1.34 1.30 1.32 1.39 1.48 1.53 1.65 1.75
1.19 1.06 1.06 1.23 1.27 1.35 1.36 1.47 1.58 1.53 1.42 1.43 1.37 1.34 1.36 1.45 1.57 1.78 2.05 2.32 2.49 2.54 2.28 2.33 2.76 2.50 2.39 2.20 2.06 1.87 1.52 1.29 1.20 1.21 1.28 1.53 1.67 1.73
1.34 1.36 1.27 1.31 1.30 1.24 1.30 1.36 1.37 1.35 1.42 1.44 1.32 1.23 1.24 1.34 1.42 1.55 1.72 1.95 2.13 2.25 2.26 2.20 2.40 2.44 2.42 2.29 1.92 1.70 1.64 1.52 1.23 1.19 1.27 1.32 1.41 1.54
1.46 1.47 1.42 1.38 1.29 1.23 1.23 1.17 1.15 1.25 1.33 1.33 1.21 1.10 1.09 1.22 1.36 1.48 1.65 1.83 2.10 2.20 2.20 2.21 2.25 2.45 2.47 2.06 1.83 1.62 1.45 1.63 1.43 1.22 1.27 1.34 1.34 1.33
1.58 1.48 1.37 1.33 1.34 1.25 1.16 1.09 1.09 1.17 1.22 1.15 1.14 1.12 1.12 1.20 1.29 1.40 1.64 1.80 2.01 2.02 2.13 2.29 2.33 2.33 2.38 2.30 2.14 1.67 1.37 1.33 1.30 1.23 1.30 1.47 1.53 1.44
1.63 1.48 1.27 1.19 1.19 1.15 1.13 1.10 1.05 1.07 1.08 1.10 1.16 1.18 1.20 1.25 1.29 1.35 1.56 1.77 1.86 1.84 1.94 2.12 2.29 2.39 2.52 2.63 2.37 1.85 1.48 1.37 1.31 1.24 1.27 1.48 1.70 1.61
1.38 1.26 1.15 1.09 1.04 1.02 1.05 1.03 1.02 1.01 1.05 1.10 1.13 1.12 1.15 1.19 1.25 1.32 1.44 1.59 1.68 1.73 1.80 1.90 2.12 2.32 2.46 2.58 2.62 2.17 1.78 1.56 1.46 1.47 1.41 1.44 1.62 1.65
1.16 1.13 1.13 1.09 1.05 1.04 1.05 1.06 1.02 1.02 1.08 1.14 1.14 1.09 1.11 1.20 1.24 1.26 1.31 1.46 1.57 1.63 1.71 1.79 1.98 2.22 2.37 2.33 2.45 2.43 2.15 1.80 1.65 1.68 1.59 1.52 1.57 1.66
1.12 1.09 1.10 1.14 1.13 1.11 1.08 1.09 1.10 1.10 1.10 1.15 1.14 1.11 1.11 1.19 1.22 1.20 1.25 1.38 1.48 1.53 1.63 1.69 1.78 1.96 2.09 2.11 2.16 2.17 2.24 2.18 1.87 1.71 1.65 1.71 1.79 1.78
1.09 1.09 1.08 1.12 1.16 1.16 1.14 1.14 1.16 1.16 1.17 1.20 1.14 1.10 1.11 1.17 1.21 1.20 1.22 1.26 1.30 1.37 1.48 1.53 1.61 1.83 2.06 2.21 2.14 1.98 2.06 2.21 2.22 1.97 1.78 1.82 2.09 2.32
1.13 1.13 1.10 1.10 1.11 1.12 1.12 1.13 1.16 1.15 1.15 1.17 1.11 1.03 1.03 1.11 1.14 1.16 1.14 1.11 1.14 1.21 1.33 1.47 1.59 1.77 1.97 2.06 2.09 1.93 1.85 1.96 2.08 2.12 2.16 1.96 1.70 1.64